Location: Unspecified
(43.4680°N, 87.1740°E)
Time: 15:07:59
(UTC+00:00)

Cosmos 1356 Rocket - Pass Details

Date: 07 August 2021
Orbit: 543 x 597 km, 81.2° (Epoch: 19 September)

Event Time Altitude Azimuth Distance (km) Brightness Sun altitude
Exits shadow 20:25:48 12° 305° (NW) 1,687 5.8 -23.5°
Drops below altitude 10° 20:26:52 10° 320° (NW) 1,818 6.1 -23.4°
Sets 20:30:15 0° 350° (N) 2,722 7.5 -23.0°
